Columbus, MS

7:45 PM CST on February 19, 2017 (GMT -0600)
Columbus Air Force Base

Weather History for KCBM - November, 2012

Change the Weather History Date:

Monday, November 12, 2012

  Actual Average Record
Temperature  
Mean Temperature 52 °F -  
Max Temperature 66 °F 62 °F 78 °F (2003)
Min Temperature 36 °F 42 °F 31 °F (2011)
Degree Days  
Heating Degree Days 14    
Growing Degree Days 2 (Base 50)    
Moisture  
Dew Point 51 °F    
Average Humidity 88    
Maximum Humidity 100    
Minimum Humidity 59    
Precipitation  
Precipitation 0.90 in - - ()
Sea Level Pressure  
Sea Level Pressure 30.23 in    
Wind  
Wind Speed 12 mph (NW)    
Max Wind Speed 25 mph    
Max Gust Speed 31 mph    
Visibility 7 miles    
Events Rain , Thunderstorm    
Averages and records for this station are not official NWS values.
T = Trace of Precipitation, MM = Missing Value Source: NWS Daily Summary

Daily Weather History Graph

Daily Weather History Graph

Search for Another Location

Airport or City:

Trip Planner

Search our weather history database for the weather conditions in past years. The results will help you decide how hot, cold, wet, or windy it might be!

Date:

Astronomy

Nov. 12, 2012 Rise Set
Actual Time 6:23 AM CST 4:52 PM CST
Civil Twilight 5:56 AM CST 5:18 PM CST
Nautical Twilight 5:27 AM CST 5:48 PM CST
Astronomical Twilight 4:57 AM CST 6:18 PM CST
Moon 4:50 AM CST (11/12) 3:56 PM CST (11/12)
Length of Visible Light 11h 21m
Length of Day
10h 29m
Waning Crescent, 2% of the Moon is Illuminated
Nov 12
Waning Crescent
Nov 13
New
Nov 20
First Quarter
Nov 28
Full
Dec 6
Last Quarter

Hourly Weather History & Observations

Time (CST) Temp. Windchill Dew Point Humidity Pressure Visibility Wind Dir Wind Speed Gust Speed Precip Events Conditions
12:43 AM 66.2 °F - 51.8 °F 60% 30.11 in 10.0 mi South 15.0 mph - N/A Rain Light Rain
12:55 AM 64.8 °F - 52.7 °F 65% 30.12 in 10.0 mi South 12.7 mph - 0.00 in Rain Light Rain
12:56 AM 64.4 °F - 51.8 °F 64% 30.12 in 10.0 mi South 12.7 mph - N/A   Mostly Cloudy
1:18 AM 64.4 °F - 53.6 °F 68% 30.13 in 9.0 mi South 13.8 mph 25.3 mph N/A Rain , Thunderstorm Light Rain
1:20 AM 64.4 °F - 55.4 °F 73% 30.13 in 8.0 mi South 16.1 mph - N/A Rain , Thunderstorm Light Rain
1:28 AM 62.6 °F - 55.4 °F 77% 30.13 in 5.0 mi South 15.0 mph - N/A Thunderstorm Haze
1:32 AM 60.8 °F - 55.4 °F 82% 30.13 in 6.0 mi South 13.8 mph - N/A Rain , Thunderstorm Light Rain
1:39 AM 60.8 °F - 57.2 °F 88% 30.13 in 6.0 mi South 13.8 mph - N/A Rain , Thunderstorm Light Thunderstorms and Rain
1:53 AM 59.0 °F - 57.2 °F 94% 30.13 in 5.0 mi South 11.5 mph - N/A Rain , Thunderstorm Thunderstorms and Rain
1:55 AM 59.9 °F - 56.8 °F 90% 30.13 in 4.0 mi SSE 11.5 mph - 0.10 in Rain , Thunderstorm Thunderstorms and Rain
2:04 AM 59.0 °F - 57.2 °F 94% 30.12 in 5.0 mi South 8.1 mph - N/A Rain , Thunderstorm Light Thunderstorms and Rain
2:17 AM 59.0 °F - 57.2 °F 94% 30.11 in 4.0 mi SSE 13.8 mph - N/A Rain , Thunderstorm Light Thunderstorms and Rain
2:20 AM 59.0 °F - 57.2 °F 94% 30.11 in 4.0 mi SSE 15.0 mph - N/A Rain Rain
2:28 AM 59.0 °F - 57.2 °F 94% 30.11 in 4.0 mi SSE 15.0 mph - N/A   Overcast
2:29 AM 59.0 °F - 57.2 °F 94% 30.11 in 4.0 mi SSE 16.1 mph - N/A Rain Light Rain
2:30 AM 59.0 °F - 57.2 °F 94% 30.11 in 4.0 mi SSE 15.0 mph - N/A Rain Light Rain
2:31 AM 59.0 °F - 57.2 °F 94% 30.11 in 3.0 mi SSE 13.8 mph - N/A Rain Rain
2:34 AM 59.0 °F - 57.2 °F 94% 30.10 in 3.0 mi SSE 15.0 mph - N/A Rain Rain
2:38 AM 59.0 °F - 57.2 °F 94% 30.10 in 4.0 mi SSE 13.8 mph - N/A Rain Rain
2:41 AM 59.0 °F - 57.2 °F 94% 30.10 in 5.0 mi SSE 13.8 mph - N/A Rain Light Rain
2:55 AM 59.0 °F - 57.4 °F 94% 30.11 in 7.0 mi SSE 8.1 mph - 0.17 in Rain Light Rain
3:07 AM 59.0 °F - 57.2 °F 94% 30.11 in 10.0 mi SSE 4.6 mph - N/A Rain Light Rain
3:23 AM 59.0 °F - 57.2 °F 94% 30.11 in 8.0 mi SE 5.8 mph - N/A Rain Light Rain
3:25 AM 59.0 °F - 57.2 °F 94% 30.11 in 6.0 mi SE 4.6 mph - N/A Rain Light Rain
3:27 AM 59.0 °F - 57.2 °F 94% 30.11 in 4.0 mi SSE 4.6 mph - N/A Rain Rain
3:30 AM 59.0 °F - 57.2 °F 94% 30.10 in 3.0 mi SE 6.9 mph - N/A Rain Rain
3:37 AM 59.0 °F - 57.2 °F 94% 30.09 in 4.0 mi SE 9.2 mph - N/A Rain Light Rain
3:40 AM 59.0 °F - 57.2 °F 94% 30.09 in 5.0 mi SE 8.1 mph - N/A Rain Light Rain
3:46 AM 59.0 °F - 57.2 °F 94% 30.09 in 8.0 mi SSE 6.9 mph - N/A Rain Light Rain
3:55 AM 58.6 °F - 57.6 °F 96% 30.09 in 6.0 mi SSE 10.4 mph - 0.15 in Rain Light Rain
3:58 AM 59.0 °F - 57.2 °F 94% 30.09 in 5.0 mi SSE 11.5 mph - N/A Rain Light Rain
4:12 AM 59.0 °F - 57.2 °F 94% 30.11 in 4.0 mi Variable 3.5 mph - N/A Rain Rain
4:19 AM 59.0 °F - 57.2 °F 94% 30.12 in 4.0 mi WNW 12.7 mph - N/A Rain Heavy Rain
4:20 AM 59.0 °F - 57.2 °F 94% 30.12 in 3.0 mi WNW 10.4 mph - N/A Rain Heavy Rain
4:21 AM 59.0 °F - 57.2 °F 94% 30.12 in 3.0 mi WNW 9.2 mph - N/A Rain Heavy Rain
4:22 AM 59.0 °F - 57.2 °F 94% 30.12 in 2.5 mi WNW 9.2 mph - N/A Rain Heavy Rain
4:27 AM 59.0 °F - 57.2 °F 94% 30.11 in 1.8 mi NW 21.9 mph - N/A Rain Heavy Rain
4:28 AM 59.0 °F - 57.2 °F 94% 30.11 in 1.8 mi NW 25.3 mph 31.1 mph N/A Rain Heavy Rain
4:31 AM 59.0 °F - 57.2 °F 94% 30.12 in 2.0 mi NW 20.7 mph 31.1 mph N/A Rain Heavy Rain
4:35 AM 59.0 °F - 57.2 °F 94% 30.13 in 3.0 mi NW 16.1 mph 31.1 mph N/A Rain Heavy Rain
4:38 AM 57.2 °F - 57.2 °F 100% 30.13 in 4.0 mi NW 20.7 mph - N/A Rain Heavy Rain
4:40 AM 57.2 °F - 55.4 °F 94% 30.13 in 5.0 mi NW 17.3 mph - N/A Rain Heavy Rain
4:45 AM 57.2 °F - 55.4 °F 94% 30.14 in 4.0 mi NW 21.9 mph 25.3 mph N/A Rain Light Rain
4:49 AM 55.4 °F - 53.6 °F 94% 30.13 in 3.0 mi NW 20.7 mph 25.3 mph N/A Rain Heavy Rain
4:55 AM 54.9 °F - 53.4 °F 95% 30.16 in 3.0 mi NW 20.7 mph - 0.26 in Rain Heavy Rain
5:10 AM 53.6 °F - 53.6 °F 100% 30.16 in 4.0 mi NNW 10.4 mph - N/A Rain Rain
5:12 AM 53.6 °F - 53.6 °F 100% 30.16 in 5.0 mi NNW 15.0 mph - N/A Rain Rain
5:13 AM 53.6 °F - 53.6 °F 100% 30.16 in 5.0 mi NNW 15.0 mph - N/A Rain Rain
5:14 AM 53.6 °F - 53.6 °F 100% 30.17 in 6.0 mi NNW 13.8 mph - N/A Rain Rain
5:17 AM 53.6 °F - 53.6 °F 100% 30.17 in 7.0 mi NNW 11.5 mph - N/A Rain Light Rain
5:30 AM 53.6 °F - 53.6 °F 100% 30.18 in 10.0 mi WNW 10.4 mph - N/A Rain Light Rain
5:38 AM 53.6 °F - 53.6 °F 100% 30.18 in 9.0 mi WNW 5.8 mph - N/A Rain Light Rain
5:55 AM 54.1 °F - 53.1 °F 96% 30.19 in 8.0 mi NNW 8.1 mph - 0.12 in Rain Light Rain
6:22 AM 53.6 °F - 53.6 °F 100% 30.21 in 6.0 mi NNW 8.1 mph - N/A Rain Rain
6:27 AM 53.6 °F - 53.6 °F 100% 30.21 in 4.0 mi NNW 5.8 mph - N/A Rain Rain
6:29 AM 53.6 °F - 53.6 °F 100% 30.21 in 5.0 mi NNW 4.6 mph - N/A Rain Light Rain
6:46 AM 53.6 °F - 53.6 °F 100% 30.21 in 8.0 mi North 10.4 mph - N/A Rain Light Rain
6:55 AM 53.4 °F - 52.5 °F 97% 30.21 in 10.0 mi North 6.9 mph - 0.08 in Rain Light Rain
7:10 AM 53.6 °F - 51.8 °F 94% 30.22 in 10.0 mi North 8.1 mph - N/A   Overcast
7:12 AM 53.6 °F - 51.8 °F 94% 30.22 in 10.0 mi NNE 9.2 mph - N/A Rain Light Rain
7:21 AM 53.6 °F - 51.8 °F 94% 30.22 in 10.0 mi NNE 5.8 mph - N/A   Mostly Cloudy
7:43 AM 53.6 °F - 51.8 °F 94% 30.24 in 10.0 mi NW 5.8 mph - N/A   Mostly Cloudy
7:55 AM 53.4 °F - 52.0 °F 95% 30.25 in 10.0 mi NW 6.9 mph - 0.00 in   Overcast
7:56 AM 53.6 °F - 51.8 °F 94% 30.25 in 10.0 mi NW 6.9 mph - N/A   Overcast
8:05 AM 53.6 °F - 51.8 °F 94% 30.25 in 10.0 mi NW 6.9 mph - N/A   Overcast
8:22 AM 53.6 °F - 51.8 °F 94% 30.28 in 10.0 mi WNW 9.2 mph - N/A Rain Light Rain
8:39 AM 53.6 °F - 51.8 °F 94% 30.28 in 10.0 mi NW 9.2 mph - N/A Rain Light Rain
8:52 AM 53.6 °F - 51.8 °F 94% 30.29 in 10.0 mi WNW 11.5 mph - N/A Rain Light Rain
8:54 AM 53.6 °F - 51.8 °F 94% 30.29 in 10.0 mi NW 10.4 mph - N/A Rain Light Rain
8:55 AM 53.4 °F - 51.8 °F 94% 30.29 in 10.0 mi NW 9.2 mph - 0.01 in Rain Light Rain
8:56 AM 53.6 °F - 51.8 °F 94% 30.29 in 10.0 mi NW 10.4 mph - N/A Rain Light Rain
8:59 AM 53.6 °F - 51.8 °F 94% 30.29 in 10.0 mi NW 11.5 mph - N/A Rain Light Rain
9:05 AM 53.6 °F - 51.8 °F 94% 30.29 in 10.0 mi NW 9.2 mph - N/A Rain Light Rain
9:18 AM 53.6 °F - 51.8 °F 94% 30.29 in 10.0 mi NNW 8.1 mph - N/A Rain Light Rain
9:21 AM 53.6 °F - 51.8 °F 94% 30.28 in 10.0 mi NNW 8.1 mph - N/A   Overcast
9:22 AM 53.6 °F - 51.8 °F 94% 30.28 in 10.0 mi NNW 8.1 mph - N/A   Overcast
9:28 AM 53.6 °F - 51.8 °F 94% 30.29 in 10.0 mi NNW 9.2 mph - N/A   Overcast
9:31 AM 53.6 °F - 51.8 °F 94% 30.29 in 10.0 mi NNW 8.1 mph - N/A   Overcast
9:34 AM 53.6 °F - 51.8 °F 94% 30.29 in 10.0 mi NNW 8.1 mph - N/A   Overcast
9:39 AM 53.6 °F - 51.8 °F 94% 30.29 in 10.0 mi NNW 9.2 mph - N/A   Overcast
9:47 AM 53.6 °F - 51.8 °F 94% 30.30 in 10.0 mi NW 11.5 mph - N/A   Overcast
9:49 AM 53.6 °F - 51.8 °F 94% 30.30 in 10.0 mi NW 9.2 mph - N/A   Overcast
9:55 AM 54.1 °F - 52.0 °F 92% 30.29 in 10.0 mi NNW 10.4 mph - 0.00 in   Overcast
10:14 AM 55.4 °F - 51.8 °F 88% 30.31 in 10.0 mi NW 8.1 mph - N/A   Overcast
10:15 AM 55.4 °F - 51.8 °F 88% 30.31 in 10.0 mi NW 8.1 mph - N/A   Overcast
10:34 AM 53.6 °F - 51.8 °F 94% 30.31 in 10.0 mi NNW 9.2 mph - N/A Rain Light Rain
10:44 AM 53.6 °F - 51.8 °F 94% 30.32 in 10.0 mi NNW 12.7 mph - N/A   Overcast
10:55 AM 54.1 °F - 50.7 °F 88% 30.32 in 10.0 mi NW 12.7 mph - 0.00 in   Overcast
11:55 AM 52.2 °F - 47.3 °F 83% 30.33 in 10.0 mi North 12.7 mph 20.7 mph N/A   Overcast
12:55 PM 50.7 °F - 45.3 °F 82% 30.35 in 10.0 mi NNW 17.3 mph 20.7 mph 0.01 in   Overcast
1:27 PM 50.0 °F - 44.6 °F 82% 30.35 in 10.0 mi NNW 11.5 mph - N/A   Overcast
1:28 PM 50.0 °F - 44.6 °F 82% 30.35 in 10.0 mi NNW 11.5 mph - N/A   Overcast
1:33 PM 50.0 °F - 42.8 °F 76% 30.36 in 10.0 mi NNW 15.0 mph 19.6 mph N/A   Overcast
1:41 PM 50.0 °F - 42.8 °F 76% 30.36 in 10.0 mi NNW 15.0 mph - N/A   Overcast
1:42 PM 50.0 °F - 42.8 °F 76% 30.36 in 10.0 mi NNW 16.1 mph - N/A   Overcast
1:47 PM 51.8 °F - 42.8 °F 71% 30.36 in 10.0 mi North 15.0 mph - N/A   Mostly Cloudy
1:50 PM 51.8 °F - 42.8 °F 71% 30.35 in 10.0 mi North 16.1 mph - N/A   Mostly Cloudy
1:53 PM 51.8 °F - 42.8 °F 71% 30.36 in 10.0 mi North 15.0 mph - N/A   Mostly Cloudy
1:55 PM 52.0 °F - 42.3 °F 69% 30.35 in 10.0 mi North 12.7 mph - N/A   Mostly Cloudy
2:05 PM 51.8 °F - 41.0 °F 67% 30.35 in 10.0 mi NNW 15.0 mph 20.7 mph N/A   Scattered Clouds
2:55 PM 52.9 °F - 40.3 °F 62% 30.35 in 10.0 mi NNW 11.5 mph - N/A   Clear
3:55 PM 53.1 °F - 38.8 °F 59% 30.35 in 10.0 mi NNW 11.5 mph - N/A   Clear
4:54 PM 50.0 °F - 37.4 °F 62% 30.38 in 4.0 mi NNW 6.9 mph - N/A   Haze
4:55 PM 49.3 °F - 37.2 °F 63% 30.38 in 4.0 mi NNW 8.1 mph - N/A   Haze
4:56 PM 48.2 °F - 37.4 °F 66% 30.38 in 3.0 mi NNW 6.9 mph - N/A   Haze
5:07 PM 48.2 °F - 37.4 °F 66% 30.38 in 4.0 mi NNW 9.2 mph - N/A   Haze
5:11 PM 48.2 °F - 37.4 °F 66% 30.38 in 5.0 mi NNW 8.1 mph - N/A   Haze
5:55 PM 46.9 °F - 35.1 °F 63% 30.39 in 10.0 mi NNW 9.2 mph - N/A   Clear
6:55 PM 44.4 °F 41.2 °F 33.4 °F 65% 30.42 in 10.0 mi NNW 5.8 mph - N/A   Clear
7:55 PM 41.7 °F 36.7 °F 32.2 °F 69% 30.44 in 10.0 mi North 8.1 mph - N/A   Clear
8:55 PM 39.4 °F 35.2 °F 31.8 °F 74% 30.44 in 10.0 mi North 5.8 mph - N/A   Clear
9:55 PM 38.8 °F 33.8 °F 30.4 °F 72% 30.45 in 10.0 mi North 6.9 mph - N/A   Clear
10:55 PM 37.4 °F 31.4 °F 29.7 °F 74% 30.45 in 10.0 mi North 8.1 mph - N/A   Clear
11:55 PM 36.3 °F 31.6 °F 28.6 °F 74% 30.45 in 10.0 mi North 5.8 mph - N/A   Clear